[[{"header":{"parameterUnit":"m.s-1","parameterCategory":1,"la1":30.2991,"la2":30.254,"lo1":-89.0895,"lo2":-89.0444,"dy":0.0017,"dx":0.0017,"nx":28,"ny":28,"refTime":"2024-07-07T03:00:00:Z","depth":0,"parameterNumber":2,"parameterNumberName":"U-component_of_WINDS"},"data":[0,0,0,0,0,0,0,0,0,0,0,0,0,0,0,0,0,0,0,0,0,0,0,0,0,0,0,0,0,0,0,0,0,0,0,0,0,0,0,0,0,0,0,0,0,0,0,0,0,0,0,0,0,0,0,0,0,0,0.5412,0.5412,0,0.5454,0.5454,0.5455,0.5408,0.5407,0.5405,0.5403,0.5452,0.5455,0.5458,0,0,0,0,0,0,0,0,0,0,0,0,0,0.5295,0.5298,0.5412,0.5412,0.5413,0.5454,0.5454,0.5455,0.5409,0.5406,0.5404,0.5402,0.5451,0.5455,0.5459,0,0,0,0,0,0,0,0,0,0,0,0,0,0.5343,0.5299,0.5411,0.5394,0.5393,0.5454,0.5454,0.5455,0.5409,0.5406,0.5404,0.5401,0.545,0.5455,0.5459,0.554,0,0,0.5473,0.5475,0,0,0,0,0,0,0,0,0.534,0.5347,0.5396,0.5396,0.5394,0.5423,0.5432,0.5484,0.541,0.5403,0.5403,0.54,0.5445,0.545,0.5464,0.5543,0.5545,0.5473,0.5476,0.5478,0.5479,0,0,0,0,0,0,0,0.5337,0.5345,0.5428,0.5397,0.5396,0.5386,0.539,0.5441,0.5439,0.5404,0.54,0.5406,0.5444,0.546,0.5465,0.5546,0.5473,0.5477,0.548,0.5481,0.5694,0.5697,0,0,0,0,0,0,0.5335,0.5343,0.5427,0.543,0.536,0.539,0.5395,0.5417,0.5438,0.5439,0.5408,0.5403,0.5453,0.546,0.5466,0.5563,0.5478,0.5482,0.5484,0.5691,0.5695,0.5698,0,0,0,0,0,0,0.5333,0.5343,0.5425,0.5385,0.5395,0.5395,0.542,0.5419,0.5434,0.5441,0.5441,0.5424,0.5452,0.546,0.5522,0.5564,0.5484,0.5488,0.5688,0.5692,0.5696,0.5758,0,0,0,0,0,0,0.5329,0.5342,0.5372,0.5386,0.5397,0.5479,0.5423,0.5422,0.5441,0.5436,0.5456,0.5457,0.545,0.5516,0.5527,0.5569,0.5491,0.5684,0.569,0.5695,0.5752,0.5764,0.5774,0,0,0,0,0,0.5325,0.5389,0.5374,0.5384,0.5434,0.5481,0.5488,0.5477,0.5445,0.5476,0.548,0.5457,0.5558,0.5522,0.5534,0.5579,0.5681,0.5688,0.5694,0.5747,0.5762,0.5774,0,0,0,0,0,0,0.5382,0.539,0.5374,0.5443,0.5462,0.5473,0.5512,0.5492,0.5522,0.5516,0.5502,0.5507,0.5573,0.5582,0.5542,0.5659,0.5615,0.5624,0.5651,0.5664,0.5675,0.5672,0.5495,0,0,0,0,0,0.5402,0.5438,0.5444,0.5505,0.5515,0.5512,0.5532,0.5522,0.5541,0.5549,0.5558,0.558,0.5616,0.5641,0.5675,0.5753,0.5758,0.579,0.5801,0.581,0.5818,0.5861,0.5876,0.572,0.572,0.572,0,0,0.5445,0.5454,0.5478,0.5517,0.553,0.5569,0.5519,0.5562,0.5592,0.5556,0.5615,0.5623,0.5646,0.5716,0.5748,0.5726,0.5862,0.5818,0.5825,0.5829,0.5869,0.5884,0.5897,0.5724,0.5723,0.5723,0,0,0.5542,0.5552,0.5604,0.5618,0.5637,0.5635,0.5648,0.5662,0.5665,0.5723,0.5698,0.5733,0.5796,0.5814,0.5831,0.5935,0.5915,0.5947,0.6005,0.6046,0.6059,0.6069,0.6107,0.6121,0.5955,0.5955,0.5956,0,0.5593,0.5649,0.5634,0.5679,0.5697,0.5665,0.5718,0.5733,0.5764,0.5778,0.5752,0.5831,0.5844,0.5918,0.5944,0.5958,0.5974,0.5945,0.6058,0.6068,0.6078,0.6114,0.6129,0.5959,0.5959,0.5958,0.5958,0,0.5712,0.5751,0.5791,0.5819,0.5842,0.5891,0.5884,0.591,0.5898,0.5898,0.5959,0.5973,0.601,0.6026,0.6016,0.61,0.6086,0.6059,0.6014,0.6097,0.6131,0.6145,0.5965,0.5963,0.5962,0.5961,0,0,0.5846,0.5865,0.588,0.5892,0.5911,0.5942,0.5991,0.6024,0.6047,0.6069,0.611,0.6164,0.614,0.6159,0.615,0.6187,0.6269,0.6156,0.6156,0.6177,0.6364,0.6384,0.64,0.6255,0.6258,0.626,0.6362,0,0.5945,0.6026,0.6013,0.6093,0.6129,0.6099,0.6141,0.6159,0.6161,0.6194,0.6197,0.6235,0.62,0.6211,0.6246,0.6252,0.6307,0.6244,0.6295,0.6297,0.6291,0.6417,0.6439,0.6534,0.6375,0.6377,0.6379,0,0.607,0.6095,0.6177,0.6191,0.6206,0.6244,0.6274,0.6305,0.6325,0.6324,0.6345,0.633,0.638,0.6333,0.6403,0.6361,0.6381,0.6387,0.639,0.6395,0.6344,0.6427,0.6564,0.6579,0.6399,0.6398,0.6396,0,0.6161,0.6215,0.6271,0.6283,0.63,0.6327,0.6336,0.6353,0.6374,0.6401,0.6415,0.6448,0.6467,0.6494,0.6488,0.6455,0.656,0.6513,0.6562,0.6562,0.6586,0.6584,0.6729,0.6598,0.6598,0.6597,0.6597,0,0.6272,0.6324,0.6312,0.6347,0.6405,0.639,0.6448,0.6454,0.6469,0.6505,0.6482,0.6518,0.6507,0.6543,0.6539,0.6598,0.6607,0.6608,0.6607,0.6611,0.6611,0.6624,0.6618,0.6601,0.66,0.66,0.6599,0,0.6383,0.6377,0.6437,0.6447,0.6451,0.6493,0.6503,0.6537,0.6537,0.6583,0.6594,0.6595,0.6635,0.6632,0.6678,0.6675,0.6748,0.6739,0.6741,0.6739,0.6789,0.6784,0.6948,0.6969,0.6824,0.6825,0.6826,0,0.6455,0.6493,0.6508,0.6529,0.654,0.6575,0.6596,0.6584,0.6607,0.6633,0.6664,0.6702,0.6731,0.6798,0.6804,0.6839,0.6831,0.6886,0.6836,0.6839,0.6832,0.683,0.6835,0.6896,0.6897,0.6899,0.69,0,0.6582,0.6577,0.6607,0.6637,0.6662,0.6685,0.6706,0.6726,0.6716,0.6743,0.6783,0.6806,0.6852,0.6891,0.6925,0.6936,0.6917,0.6915,0.6929,0.6933,0.6933,0.6934,0.6768,0.6912,0.6911,0.691,0.6909,0.6909,0.6676,0.6709,0.6724,0.6759,0.6773,0.6793,0.6825,0.6828,0.686,0.6896,0.6887,0.6933,0.6952,0.6995,0.701,0.7046,0.7027,0.7046,0.7051,0.7056,0.7062,0.6927,0.7052,0.7052,0.7052,0.7052,0.7051,0,0.6803,0.6811,0.6843,0.6871,0.6899,0.6877,0.6899,0.6924,0.6963,0.6982,0.7011,0.7058,0.7095,0.7104,0.714,0.7168,0.716,0.7178,0.7176,0.7179,0.7077,0.7062,0.7183,0.7183,0.7183,0.7183,0.7183,0.7183,0.6872,0.6927,0.6924,0.6986,0.6994,0.7037,0.7052,0.7071,0.7085,0.7138,0.7168,0.7172,0.7188,0.7225,0.7258,0.726,0.7275,0.7296,0.7295,0.7199,0.7186,0.7174,0.7159,0.7299,0.73,0.7394,0.7395,0.7395]},{"header":{"parameterUnit":"m.s-1","parameterCategory":1,"la1":30.2991,"la2":30.254,"lo1":-89.0895,"lo2":-89.0444,"dy":0.0017,"dx":0.0017,"nx":28,"ny":28,"refTime":"2024-07-07T03:00:00:Z","depth":0,"parameterNumber":3,"parameterNumberName":"V-component_of_WINDS"},"data":[0,0,0,0,0,0,0,0,0,0,0,0,0,0,0,0,0,0,0,0,0,0,0,0,0,0,0,0,0,0,0,0,0,0,0,0,0,0,0,0,0,0,0,0,0,0,0,0,0,0,0,0,0,0,0,0,0,0,0.7001,0.7001,0,0.705,0.7051,0.7051,0.6998,0.6996,0.6994,0.6992,0.7046,0.7049,0.7052,0,0,0,0,0,0,0,0,0,0,0,0,0,0.6863,0.6865,0.7001,0.7001,0.7002,0.705,0.7051,0.7052,0.6998,0.6996,0.6993,0.6991,0.7044,0.7048,0.7052,0,0,0,0,0,0,0,0,0,0,0,0,0,0.6919,0.6866,0.7001,0.6981,0.698,0.705,0.7051,0.7052,0.6999,0.6996,0.6993,0.699,0.7043,0.7048,0.7053,0.7146,0,0,0.7068,0.707,0,0,0,0,0,0,0,0,0.6915,0.6924,0.6983,0.6983,0.6981,0.7015,0.7022,0.7083,0.7,0.6992,0.6992,0.6988,0.7038,0.7043,0.7059,0.7148,0.7151,0.7069,0.7072,0.7074,0.7075,0,0,0,0,0,0,0,0.6912,0.6921,0.702,0.6984,0.6983,0.6971,0.6975,0.7033,0.7032,0.6992,0.6988,0.6995,0.7037,0.7055,0.706,0.7151,0.7069,0.7073,0.7076,0.7078,0.732,0.7324,0,0,0,0,0,0,0.691,0.6918,0.7019,0.7022,0.694,0.6976,0.6981,0.7007,0.7031,0.7031,0.6998,0.6992,0.7048,0.7055,0.7062,0.7174,0.7074,0.7079,0.7082,0.7317,0.7321,0.7325,0,0,0,0,0,0,0.6907,0.6919,0.7017,0.6969,0.6981,0.6981,0.7011,0.701,0.7028,0.7035,0.7035,0.7016,0.7046,0.7055,0.7126,0.7175,0.7081,0.7085,0.7313,0.7318,0.7323,0.7397,0,0,0,0,0,0,0.6903,0.6918,0.6953,0.697,0.6983,0.7079,0.7014,0.7013,0.7036,0.703,0.7052,0.7053,0.7044,0.7118,0.7131,0.718,0.7089,0.7309,0.7315,0.7321,0.739,0.7404,0.7416,0,0,0,0,0,0.6898,0.6972,0.6955,0.6967,0.7026,0.7082,0.7089,0.7077,0.704,0.7076,0.708,0.7052,0.7167,0.7126,0.7139,0.7191,0.7306,0.7313,0.7321,0.7385,0.7402,0.7416,0,0,0,0,0,0,0.6961,0.6974,0.6955,0.7036,0.7058,0.7073,0.7117,0.7095,0.7128,0.7121,0.7105,0.711,0.7186,0.7195,0.7149,0.7283,0.723,0.7241,0.7274,0.729,0.7303,0.73,0.7094,0,0,0,0,0,0.6985,0.7027,0.7036,0.7107,0.7119,0.7116,0.714,0.7128,0.7151,0.716,0.717,0.7194,0.7235,0.7263,0.7301,0.7391,0.7396,0.7433,0.7446,0.7456,0.7467,0.7517,0.7534,0.735,0.735,0.735,0,0,0.7033,0.7045,0.7074,0.712,0.7136,0.7182,0.7125,0.7175,0.721,0.7168,0.7236,0.7244,0.7269,0.735,0.7386,0.736,0.7518,0.7466,0.7474,0.7479,0.7526,0.7544,0.7559,0.7355,0.7355,0.7354,0,0,0.7146,0.7159,0.722,0.7237,0.7261,0.7259,0.7273,0.7291,0.7295,0.7362,0.7332,0.7373,0.7444,0.7464,0.7484,0.7604,0.758,0.7617,0.7685,0.7734,0.7749,0.7761,0.7807,0.7823,0.7627,0.7627,0.7627,0,0.7205,0.7272,0.7255,0.7308,0.7331,0.7293,0.7356,0.7374,0.741,0.7426,0.7396,0.7486,0.75,0.7586,0.7616,0.7632,0.765,0.7616,0.7748,0.776,0.7772,0.7815,0.7832,0.7631,0.7631,0.763,0.763,0,0.7343,0.739,0.7437,0.7472,0.7499,0.7557,0.755,0.758,0.7566,0.7567,0.7637,0.7653,0.7694,0.7713,0.77,0.7798,0.7782,0.775,0.7697,0.7794,0.7835,0.7851,0.7638,0.7636,0.7635,0.7634,0,0,0.7499,0.7523,0.7541,0.7557,0.7581,0.7618,0.7674,0.7715,0.7741,0.7767,0.7816,0.7877,0.7848,0.787,0.7859,0.7901,0.7999,0.7864,0.7865,0.7891,0.811,0.8136,0.8155,0.7982,0.7985,0.7987,0.8109,0,0.7614,0.7712,0.7698,0.7793,0.7837,0.7802,0.7852,0.7873,0.7875,0.7914,0.7917,0.7962,0.7919,0.7932,0.7973,0.7978,0.8043,0.7969,0.8029,0.8031,0.8026,0.8175,0.8202,0.8317,0.8124,0.8127,0.8129,0,0.7762,0.7793,0.7892,0.791,0.7928,0.7973,0.8009,0.8046,0.8069,0.8068,0.8093,0.8074,0.8132,0.8077,0.8158,0.8108,0.8131,0.8138,0.8142,0.8149,0.8088,0.8189,0.8352,0.8371,0.8153,0.8151,0.8149,0,0.7868,0.7934,0.8003,0.8017,0.8039,0.8072,0.8083,0.8102,0.8128,0.816,0.8176,0.8214,0.8236,0.8267,0.8259,0.8219,0.8343,0.8286,0.8346,0.8346,0.8375,0.8374,0.8547,0.8386,0.8386,0.8386,0.8386,0,0.8,0.8062,0.8051,0.8093,0.8163,0.8146,0.8216,0.8223,0.8241,0.8285,0.8256,0.8298,0.8285,0.8326,0.8321,0.839,0.8399,0.8401,0.84,0.8406,0.8406,0.8423,0.8415,0.839,0.8389,0.8389,0.8388,0,0.8132,0.8126,0.8199,0.8213,0.8218,0.8269,0.8282,0.8323,0.8322,0.8378,0.8391,0.8391,0.8439,0.8434,0.8487,0.8483,0.857,0.8557,0.8562,0.856,0.8621,0.8616,0.8813,0.8839,0.8659,0.8661,0.8662,0,0.8217,0.8264,0.8284,0.8311,0.8324,0.8368,0.8393,0.8379,0.8408,0.8438,0.8475,0.852,0.8555,0.8633,0.8639,0.868,0.867,0.8736,0.8676,0.8681,0.8674,0.8673,0.8678,0.8749,0.8751,0.8753,0.8754,0,0.837,0.8365,0.8403,0.844,0.8471,0.85,0.8526,0.855,0.8539,0.8572,0.862,0.8647,0.8702,0.8748,0.8786,0.8799,0.8776,0.8772,0.8789,0.8797,0.8798,0.8801,0.8597,0.8769,0.8767,0.8766,0.8765,0.8765,0.8483,0.8524,0.8545,0.8588,0.8606,0.8631,0.867,0.8675,0.8714,0.8757,0.8746,0.8801,0.8824,0.8874,0.889,0.8934,0.891,0.8933,0.8939,0.8946,0.8954,0.8789,0.894,0.894,0.894,0.8939,0.8939,0,0.8637,0.8648,0.8688,0.8725,0.876,0.8733,0.876,0.8792,0.884,0.8863,0.8898,0.8954,0.8998,0.9008,0.905,0.9084,0.9074,0.9096,0.9094,0.9098,0.8972,0.8955,0.9103,0.9102,0.9102,0.9102,0.9102,0.9102,0.8721,0.879,0.8788,0.8865,0.8876,0.8929,0.8948,0.8971,0.8989,0.9053,0.909,0.9095,0.9113,0.9156,0.9196,0.9198,0.9216,0.9242,0.924,0.9123,0.9107,0.9091,0.9075,0.9246,0.9246,0.9363,0.9364,0.9365]}]]